This is the latest recevied weather packets stored in our database for station/object DM4XI-13. If no packets are shown the sender has not sent any weather packets the latest 10 day(s).
| Time | Temp. | Humidity | Pressure | Rain* | Wind** | Luminosity | Snow |
|---|---|---|---|---|---|---|---|
| 1778124354 | 10° C | 92% | 1007.8 hPa | 0 mm | 0.45 m/s, 195° | 0 W/m² | - |
| 1778124293 | 10° C | 92% | 1007.8 hPa | 0 mm | 0.45 m/s, 183° | 0 W/m² | - |
| 1778124232 | 10° C | 92% | 1007.7 hPa | 0 mm | 0 m/s | 0 W/m² | - |
| 1778124171 | 10° C | 91% | 1008 hPa | 0 mm | 1.79 m/s, 194° | 0 W/m² | - |
| 1778124110 | 10° C | 91% | 1007.8 hPa | 0 mm | 0.89 m/s, 199° | 0 W/m² | - |
| 1778124049 | 10° C | 91% | 1007.9 hPa | 0 mm | 0.89 m/s, 173° | 0 W/m² | - |
| 1778123988 | 10° C | 91% | 1007.7 hPa | 0 mm | 0.89 m/s, 177° | 0 W/m² | - |
| 1778123927 | 10° C | 92% | 1007.8 hPa | 0 mm | 1.79 m/s, 216° | 0 W/m² | - |
| 1778123866 | 10° C | 92% | 1007.8 hPa | 0 mm | 1.34 m/s, 207° | 0 W/m² | - |
| 1778123806 | 10° C | 92% | 1007.8 hPa | 0 mm | 0.45 m/s, 181° | 0 W/m² | - |
| 1778123744 | 10° C | 92% | 1007.7 hPa | 0 mm | 0.45 m/s, 190° | 0 W/m² | - |
| 1778123683 | 10° C | 92% | 1007.7 hPa | 0 mm | 0.45 m/s, 200° | 0 W/m² | - |
| 1778123622 | 10° C | 92% | 1007.5 hPa | 0 mm | 1.34 m/s, 183° | 0 W/m² | - |
| 1778123561 | 10° C | 92% | 1007.7 hPa | 0 mm | 0.89 m/s, 191° | 0 W/m² | - |
| 1778123500 | 10° C | 92% | 1007.8 hPa | 0 mm | 1.34 m/s, 180° | 0 W/m² | - |
| 1778123439 | 10° C | 92% | 1007.7 hPa | 0 mm | 0.45 m/s, 191° | 0 W/m² | - |
| 1778123378 | 10° C | 92% | 1007.7 hPa | 0 mm | 1.79 m/s, 195° | 0 W/m² | - |
| 1778123317 | 10° C | 93% | 1007.7 hPa | 0 mm | 1.79 m/s, 187° | 0 W/m² | - |
| 1778123256 | 10° C | 93% | 1007.7 hPa | 0 mm | 1.34 m/s, 175° | 0 W/m² | - |
| 1778123195 | 9.44° C | 93% | 1007.6 hPa | 0 mm | 0.89 m/s, 187° | 0 W/m² | - |
| 1778123134 | 9.44° C | 93% | 1007.7 hPa | 0 mm | 0.45 m/s, 182° | 0 W/m² | - |
| 1778123073 | 9.44° C | 93% | 1007.5 hPa | 0 mm | 1.34 m/s, 189° | 0 W/m² | - |
| 1778123012 | 9.44° C | 94% | 1007.5 hPa | 0 mm | 0.45 m/s, 185° | 0 W/m² | - |
| 1778122951 | 9.44° C | 94% | 1007.7 hPa | 0 mm | 0.45 m/s, 205° | 0 W/m² | - |
| 1778122890 | 9.44° C | 94% | 1007.6 hPa | 0 mm | 1.34 m/s, 185° | 0 W/m² | - |
* Rain latest hour (hover to see other rain measurements)
** Current wind speed in m/s (hover to see current wind gust speed)